| time (UTC) | temp F | wind direction | speed MPH | gust MPH | rain 1hr in | rain 24hr in | rain mn in | humidity % | barometer mb |
| 20260510153017 | 65 | 304 | 1.0 | 7.0 | 0.00 | 0.28 | 0.08 | 60 | 1007.7 |
| 20260510152517 | 65 | 199 | 0.0 | 6.0 | 0.00 | 0.28 | 0.08 | 61 | 1007.7 |
| 20260510152018 | 64 | 142 | 0.0 | 2.0 | 0.00 | 0.28 | 0.08 | 62 | 1007.7 |
| 20260510151519 | 64 | 148 | 0.0 | 3.0 | 0.00 | 0.28 | 0.08 | 61 | 1007.8 |
| 20260510151018 | 64 | 270 | 1.0 | 5.0 | 0.00 | 0.28 | 0.08 | 61 | 1008.1 |
| 20260510150516 | 64 | 161 | 0.0 | 3.0 | 0.00 | 0.28 | 0.08 | 60 | 1007.9 |
| 20260510150017 | 65 | 291 | 1.0 | 3.0 | 0.00 | 0.28 | 0.08 | 62 | 1008.0 |
| 20260510145517 | 64 | 204 | 0.0 | 0.0 | 0.00 | 0.28 | 0.08 | 62 | 1008.0 |
| 20260510145017 | 64 | 115 | 0.0 | 2.0 | 0.00 | 0.28 | 0.08 | 61 | 1008.1 |
| 20260510144517 | 65 | 229 | 0.0 | 6.0 | 0.00 | 0.28 | 0.08 | 60 | 1008.4 |
| 20260510144017 | 66 | 312 | 1.0 | 5.0 | 0.00 | 0.28 | 0.08 | 59 | 1008.4 |
| 20260510143517 | 67 | 343 | 1.0 | 3.0 | 0.00 | 0.28 | 0.08 | 61 | 1008.5 |
| 20260510143017 | 67 | 289 | 1.0 | 5.0 | 0.00 | 0.28 | 0.08 | 61 | 1008.5 |
| 20260510142517 | 67 | 186 | 1.0 | 5.0 | 0.00 | 0.28 | 0.08 | 61 | 1008.4 |
| 20260510142017 | 66 | 142 | 2.0 | 6.0 | 0.00 | 0.28 | 0.08 | 64 | 1008.6 |
| 20260510141518 | 65 | 147 | 1.0 | 6.0 | 0.00 | 0.28 | 0.08 | 66 | 1008.5 |
| 20260510141018 | 64 | 112 | 0.0 | 0.0 | 0.00 | 0.28 | 0.08 | 66 | 1008.7 |
| 20260510140519 | 63 | 139 | 0.0 | 0.0 | 0.00 | 0.28 | 0.08 | 68 | 1009.1 |
| 20260510140017 | 63 | 107 | 0.0 | 0.0 | 0.00 | 0.28 | 0.08 | 68 | 1009.2 |
| 20260510135517 | 62 | 202 | 0.0 | 0.0 | 0.00 | 0.28 | 0.08 | 69 | 1009.1 |
| 20260510135017 | 62 | 202 | 0.0 | 0.0 | 0.02 | 0.28 | 0.08 | 70 | 1009.1 |
| 20260510134517 | 61 | 190 | 0.0 | 1.0 | 0.02 | 0.28 | 0.08 | 71 | 1009.1 |
| 20260510134018 | 60 | 313 | 0.0 | 0.0 | 0.02 | 0.28 | 0.08 | 73 | 1009.0 |
| 20260510133517 | 59 | 199 | 0.0 | 0.0 | 0.02 | 0.28 | 0.08 | 74 | 1008.9 |
| 20260510133018 | 57 | 66 | 0.0 | 0.0 | 0.02 | 0.28 | 0.08 | 74 | 1009.0 |
| 20260510132517 | 56 | 112 | 1.0 | 3.0 | 0.06 | 0.28 | 0.08 | 73 | 1009.0 |
| 20260510132016 | 56 | 112 | 1.0 | 6.0 | 0.06 | 0.28 | 0.08 | 72 | 1009.2 |
| 20260510131517 | 56 | 11 | 1.0 | 3.0 | 0.06 | 0.28 | 0.08 | 72 | 1009.5 |
| 20260510131018 | 56 | 19 | 1.0 | 6.0 | 0.06 | 0.28 | 0.08 | 72 | 1009.5 |
| 20260510130518 | 57 | 48 | 1.0 | 6.0 | 0.06 | 0.28 | 0.08 | 72 | 1009.9 |
| 20260510130020 | 56 | 38 | 0.0 | 0.0 | 0.06 | 0.28 | 0.08 | 72 | 1009.9 |
| 20260510125517 | 56 | 20 | 0.0 | 0.0 | 0.06 | 0.28 | 0.08 | 71 | 1010.0 |
| 20260510125017 | 56 | 189 | 0.0 | 5.0 | 0.04 | 0.26 | 0.06 | 69 | 1009.9 |
| 20260510124520 | 56 | 230 | 1.0 | 5.0 | 0.04 | 0.26 | 0.06 | 67 | 1009.9 |
| 20260510124019 | 57 | 192 | 1.0 | 6.0 | 0.04 | 0.26 | 0.06 | 65 | 1009.9 |
| 20260510123517 | 59 | 284 | 0.0 | 7.0 | 0.04 | 0.26 | 0.06 | 62 | 1009.8 |
| 20260510123017 | 61 | 267 | 1.0 | 5.0 | 0.04 | 0.26 | 0.06 | 58 | 1009.7 |
| 20260510122519 | 63 | 272 | 0.0 | 0.0 | 0.00 | 0.22 | 0.02 | 54 | 1009.1 |
| 20260510122017 | 65 | 208 | 0.0 | 7.0 | 0.00 | 0.22 | 0.02 | 51 | 1008.3 |
| 20260510121517 | 67 | 206 | 1.0 | 6.0 | 0.00 | 0.22 | 0.02 | 47 | 1008.3 |
| 20260510121018 | 68 | 179 | 2.0 | 6.0 | 0.00 | 0.22 | 0.02 | 46 | 1008.1 |
| 20260510120520 | 70 | 77 | 1.0 | 6.0 | 0.00 | 0.22 | 0.02 | 46 | 1008.0 |
| 20260510120018 | 71 | 189 | 1.0 | 8.0 | 0.00 | 0.22 | 0.02 | 46 | 1008.0 |
| 20260510115518 | 71 | 190 | 1.0 | 7.0 | 0.00 | 0.22 | 0.02 | 47 | 1008.2 |
| 20260510115018 | 71 | 225 | 0.0 | 0.0 | 0.00 | 0.22 | 0.02 | 47 | 1008.2 |
| 20260510114517 | 72 | 246 | 0.0 | 0.0 | 0.00 | 0.22 | 0.02 | 45 | 1008.3 |
| 20260510114018 | 73 | 248 | 0.0 | 0.0 | 0.00 | 0.22 | 0.02 | 45 | 1008.3 |
| 20260510113519 | 73 | 180 | 0.0 | 0.0 | 0.00 | 0.22 | 0.02 | 45 | 1008.4 |
| 20260510113018 | 73 | 246 | 0.0 | 3.0 | 0.00 | 0.22 | 0.02 | 46 | 1008.4 |
| 20260510112518 | 73 | 236 | 0.0 | 0.0 | 0.00 | 0.22 | 0.02 | 46 | 1008.4 |
| 20260510112018 | 72 | 152 | 0.0 | 2.0 | 0.00 | 0.22 | 0.02 | 46 | 1008.4 |
| 20260510111518 | 71 | 159 | 1.0 | 3.0 | 0.00 | 0.22 | 0.02 | 48 | 1008.5 |
| 20260510111019 | 71 | 231 | 0.0 | 3.0 | 0.00 | 0.22 | 0.02 | 48 | 1008.5 |
| 20260510110517 | 70 | 231 | 1.0 | 5.0 | 0.00 | 0.22 | 0.02 | 47 | 1008.6 |
| 20260510110018 | 70 | 305 | 1.0 | 3.0 | 0.00 | 0.22 | 0.02 | 48 | 1008.7 |
| 20260510105519 | 69 | 334 | 1.0 | 3.0 | 0.00 | 0.22 | 0.02 | 48 | 1008.8 |
| 20260510105018 | 69 | 247 | 1.0 | 3.0 | 0.00 | 0.22 | 0.02 | 48 | 1008.7 |
| 20260510104518 | 70 | 297 | 0.0 | 6.0 | 0.00 | 0.22 | 0.02 | 48 | 1008.9 |
| 20260510104018 | 71 | 163 | 1.0 | 6.0 | 0.00 | 0.22 | 0.02 | 48 | 1008.9 |
| 20260510103519 | 71 | 174 | 1.0 | 5.0 | 0.00 | 0.22 | 0.02 | 48 | 1008.9 |
| 20260510103018 | 72 | 306 | 1.0 | 6.0 | 0.00 | 0.22 | 0.02 | 48 | 1009.0 |
| 20260510102519 | 71 | 238 | 1.0 | 7.0 | 0.00 | 0.22 | 0.02 | 50 | 1009.1 |
| 20260510102019 | 71 | 169 | 2.0 | 7.0 | 0.00 | 0.22 | 0.02 | 51 | 1009.1 |
| 20260510101518 | 70 | 132 | 2.0 | 6.0 | 0.00 | 0.22 | 0.02 | 50 | 1009.2 |
| 20260510101017 | 70 | 219 | 0.0 | 5.0 | 0.00 | 0.22 | 0.02 | 51 | 1009.2 |
| 20260510100520 | 70 | 160 | 2.0 | 6.0 | 0.00 | 0.22 | 0.02 | 50 | 1009.2 |
| 20260510100016 | 70 | 178 | 2.0 | 6.0 | 0.00 | 0.22 | 0.02 | 50 | 1009.4 |
| 20260510095519 | 70 | 177 | 0.0 | 6.0 | 0.00 | 0.22 | 0.02 | 50 | 1009.5 |
| 20260510095018 | 70 | 178 | 4.0 | 7.0 | 0.00 | 0.22 | 0.02 | 51 | 1009.4 |
| 20260510094517 | 70 | 263 | 1.0 | 9.0 | 0.00 | 0.22 | 0.02 | 50 | 1009.5 |
| 20260510094019 | 69 | 169 | 1.0 | 8.0 | 0.00 | 0.22 | 0.02 | 50 | 1009.4 |
| 20260510093518 | 70 | 206 | 2.0 | 6.0 | 0.00 | 0.22 | 0.02 | 49 | 1009.4 |
| 20260510093018 | 70 | 199 | 1.0 | 6.0 | 0.00 | 0.22 | 0.02 | 49 | 1009.5 |
| 20260510092518 | 71 | 199 | 0.0 | 5.0 | 0.00 | 0.22 | 0.02 | 49 | 1009.5 |
| 20260510092017 | 71 | 202 | 1.0 | 6.0 | 0.00 | 0.22 | 0.02 | 50 | 1009.3 |
| 20260510091517 | 71 | 186 | 1.0 | 6.0 | 0.00 | 0.22 | 0.02 | 49 | 1009.4 |
| 20260510091018 | 71 | 144 | 0.0 | 0.0 | 0.00 | 0.22 | 0.02 | 49 | 1009.5 |
| 20260510090518 | 71 | 218 | 0.0 | 2.0 | 0.00 | 0.22 | 0.02 | 49 | 1009.6 |
| 20260510090018 | 71 | 199 | 1.0 | 6.0 | 0.00 | 0.22 | 0.02 | 49 | 1009.6 |
| 20260510085517 | 70 | 232 | 2.0 | 6.0 | 0.00 | 0.22 | 0.02 | 52 | 1009.6 |
| 20260510085018 | 68 | 227 | 1.0 | 6.0 | 0.00 | 0.22 | 0.02 | 53 | 1009.7 |
| 20260510084518 | 67 | 238 | 1.0 | 5.0 | 0.00 | 0.22 | 0.02 | 51 | 1009.6 |
| 20260510084016 | 68 | 106 | 0.0 | 2.0 | 0.00 | 0.22 | 0.02 | 48 | 1009.8 |
| 20260510083518 | 68 | 135 | 0.0 | 2.0 | 0.00 | 0.22 | 0.02 | 48 | 1009.7 |
| 20260510083018 | 70 | 141 | 0.0 | 2.0 | 0.00 | 0.22 | 0.02 | 45 | 1009.8 |
| 20260510082517 | 72 | 315 | 0.0 | 0.0 | 0.00 | 0.22 | 0.02 | 42 | 1009.8 |
| 20260510082017 | 76 | 238 | 0.0 | 1.0 | 0.00 | 0.22 | 0.02 | 40 | 1009.5 |
| 20260510081517 | 80 | 139 | 0.0 | 6.0 | 0.00 | 0.22 | 0.02 | 38 | 1009.6 |
| 20260510081017 | 84 | 231 | 2.0 | 9.0 | 0.00 | 0.22 | 0.02 | 37 | 1009.5 |
| 20260510080516 | 84 | 294 | 1.0 | 7.0 | 0.00 | 0.22 | 0.02 | 39 | 1009.6 |
| 20260510080016 | 83 | 180 | 1.0 | 7.0 | 0.00 | 0.22 | 0.02 | 40 | 1009.5 |
| 20260510075517 | 81 | 322 | 1.0 | 3.0 | 0.00 | 0.22 | 0.02 | 41 | 1009.5 |
| 20260510075017 | 80 | 251 | 0.0 | 3.0 | 0.00 | 0.22 | 0.02 | 41 | 1009.5 |
| 20260510074516 | 80 | 250 | 0.0 | 3.0 | 0.00 | 0.22 | 0.02 | 41 | 1009.4 |
| 20260510074016 | 80 | 119 | 1.0 | 6.0 | 0.00 | 0.22 | 0.02 | 42 | 1009.4 |
| 20260510073517 | 80 | 216 | 1.0 | 3.0 | 0.00 | 0.22 | 0.02 | 40 | 1009.1 |
| 20260510073017 | 80 | 294 | 1.0 | 3.0 | 0.00 | 0.22 | 0.02 | 43 | 1009.2 |
| 20260510072517 | 79 | 112 | 0.0 | 0.0 | 0.00 | 0.22 | 0.02 | 44 | 1009.3 |
| 20260510072017 | 78 | 248 | 0.0 | 0.0 | 0.00 | 0.22 | 0.02 | 45 | 1009.2 |
| 20260510071517 | 78 | 356 | 0.0 | 1.0 | 0.00 | 0.22 | 0.02 | 45 | 1009.1 |
| 20260510071017 | 78 | 65 | 0.0 | 0.0 | 0.00 | 0.22 | 0.02 | 48 | 1009.1 |
| 20260510070517 | 76 | 180 | 0.0 | 0.0 | 0.00 | 0.22 | 0.02 | 50 | 1009.1 |
| 20260510070018 | 74 | 323 | 0.0 | 3.0 | 0.00 | 0.22 | 0.02 | 53 | 1009.0 |
| 20260510065517 | 73 | 48 | 0.0 | 3.0 | 0.00 | 0.22 | 0.02 | 55 | 1008.8 |
| 20260510065019 | 71 | 338 | 0.0 | 0.0 | 0.00 | 0.22 | 0.02 | 57 | 1008.7 |
| 20260510064518 | 70 | 22 | 0.0 | 0.0 | 0.00 | 0.22 | 0.02 | 60 | 1008.7 |
| 20260510064020 | 68 | 22 | 0.0 | 0.0 | 0.00 | 0.22 | 0.02 | 66 | 1008.6 |
| 20260510063517 | 65 | 22 | 0.0 | 0.0 | 0.00 | 0.22 | 0.02 | 72 | 1008.7 |
| 20260510063019 | 62 | 22 | 0.0 | 0.0 | 0.00 | 0.22 | 0.02 | 81 | 1008.5 |
| 20260510062519 | 59 | 22 | 0.0 | 0.0 | 0.00 | 0.22 | 0.02 | 88 | 1008.5 |
| 20260510062018 | 55 | 22 | 0.0 | 1.0 | 0.00 | 0.22 | 0.02 | 91 | 1008.4 |
| 20260510061516 | 52 | 346 | 0.0 | 3.0 | 0.00 | 0.22 | 0.02 | 91 | 1008.5 |
| 20260510061019 | 50 | 30 | 0.0 | 3.0 | 0.00 | 0.22 | 0.02 | 92 | 1008.4 |
| 20260510060520 | 48 | 347 | 0.0 | 3.0 | 0.00 | 0.22 | 0.02 | 91 | 1008.3 |
| 20260510060019 | 47 | 31 | 0.0 | 1.0 | 0.00 | 0.22 | 0.02 | 91 | 1008.4 |
| 20260510055518 | 46 | 22 | 0.0 | 0.0 | 0.00 | 0.22 | 0.02 | 91 | 1008.4 |
| 20260510055017 | 45 | 22 | 0.0 | 0.0 | 0.00 | 0.22 | 0.02 | 91 | 1008.4 |
| 20260510054516 | 45 | 68 | 0.0 | 0.0 | 0.00 | 0.22 | 0.02 | 91 | 1008.4 |
| 20260510054016 | 44 | 68 | 0.0 | 0.0 | 0.00 | 0.22 | 0.02 | 91 | 1008.3 |
| 20260510053516 | 44 | 320 | 0.0 | 0.0 | 0.00 | 0.22 | 0.02 | 91 | 1008.6 |
| 20260510053017 | 44 | 316 | 0.0 | 0.0 | 0.00 | 0.22 | 0.02 | 91 | 1008.4 |
| 20260510052516 | 44 | 338 | 0.0 | 0.0 | 0.00 | 0.22 | 0.02 | 91 | 1008.4 |
| 20260510052017 | 44 | 125 | 0.0 | 0.0 | 0.00 | 0.22 | 0.02 | 90 | 1008.4 |
| 20260510051516 | 44 | 68 | 0.0 | 0.0 | 0.00 | 0.22 | 0.02 | 90 | 1008.4 |
| 20260510051017 | 44 | 68 | 0.0 | 0.0 | 0.00 | 0.22 | 0.02 | 90 | 1008.2 |
| 20260510050516 | 44 | 58 | 1.0 | 2.0 | 0.00 | 0.22 | 0.02 | 90 | 1008.2 |
| 20260510050017 | 44 | 339 | 0.0 | 1.0 | 0.00 | 0.22 | 0.02 | 90 | 1008.2 |
| 20260510045517 | 44 | 90 | 0.0 | 0.0 | 0.00 | 0.22 | 0.02 | 90 | 1008.3 |
| 20260510045016 | 44 | 45 | 0.0 | 0.0 | 0.00 | 0.22 | 0.02 | 90 | 1008.1 |
| 20260510044516 | 44 | 45 | 0.0 | 0.0 | 0.00 | 0.22 | 0.02 | 90 | 1008.2 |
| 20260510044017 | 45 | 90 | 0.0 | 0.0 | 0.00 | 0.22 | 0.02 | 90 | 1008.3 |
| 20260510043516 | 45 | 90 | 0.0 | 0.0 | 0.00 | 0.22 | 0.02 | 90 | 1008.1 |
| 20260510043017 | 45 | 158 | 0.0 | 0.0 | 0.00 | 0.22 | 0.02 | 90 | 1008.3 |
| 20260510042518 | 45 | 82 | 0.0 | 0.0 | 0.00 | 0.22 | 0.02 | 89 | 1008.3 |
| 20260510042016 | 45 | 51 | 0.0 | 0.0 | 0.00 | 0.22 | 0.02 | 89 | 1008.1 |
| 20260510041518 | 46 | 90 | 0.0 | 0.0 | 0.00 | 0.22 | 0.02 | 89 | 1008.3 |
| 20260510041016 | 46 | 68 | 0.0 | 0.0 | 0.00 | 0.22 | 0.02 | 89 | 1008.3 |
| 20260510040017 | 46 | 45 | 0.0 | 2.0 | 0.00 | 0.22 | 0.02 | 89 | 1008.1 |
| 20260510035517 | 46 | 22 | 0.0 | 0.0 | 0.00 | 0.22 | 0.02 | 89 | 1008.2 |
| 20260510035017 | 46 | 32 | 0.0 | 0.0 | 0.00 | 0.22 | 0.02 | 89 | 1008.2 |
| 20260510034516 | 46 | 333 | 0.0 | 0.0 | 0.00 | 0.22 | 0.02 | 88 | 1008.4 |
| 20260510034018 | 47 | 22 | 0.0 | 0.0 | 0.00 | 0.22 | 0.02 | 89 | 1008.4 |
| 20260510033517 | 47 | 0 | 0.0 | 0.0 | 0.00 | 0.22 | 0.02 | 89 | 1008.3 |
| 20260510033017 | 47 | 68 | 0.0 | 0.0 | 0.00 | 0.22 | 0.02 | 88 | 1008.3 |
| 20260510032517 | 47 | 0 | 0.0 | 0.0 | 0.02 | 0.22 | 0.02 | 88 | 1008.2 |
| 20260510032018 | 47 | 0 | 0.0 | 0.0 | 0.02 | 0.22 | 0.02 | 87 | 1008.3 |
| 20260510031516 | 47 | 0 | 0.0 | 0.0 | 0.02 | 0.22 | 0.02 | 87 | 1008.1 |
| 20260510031016 | 48 | 0 | 0.0 | 0.0 | 0.02 | 0.22 | 0.02 | 87 | 1008.0 |
| 20260510030518 | 48 | 45 | 0.0 | 0.0 | 0.02 | 0.22 | 0.02 | 87 | 1007.9 |
| 20260510030016 | 48 | 32 | 0.0 | 0.0 | 0.02 | 0.22 | 0.02 | 86 | 1007.7 |
| 20260510025519 | 49 | 45 | 0.0 | 0.0 | 0.02 | 0.22 | 0.02 | 86 | 1007.8 |
| 20260510025016 | 49 | 45 | 0.0 | 0.0 | 0.02 | 0.22 | 0.02 | 86 | 1008.0 |
| 20260510024516 | 50 | 45 | 0.0 | 0.0 | 0.02 | 0.22 | 0.02 | 85 | 1008.0 |
| 20260510024017 | 50 | 45 | 0.0 | 0.0 | 0.02 | 0.22 | 0.02 | 85 | 1007.8 |
| 20260510023515 | 50 | 78 | 0.0 | 0.0 | 0.02 | 0.22 | 0.02 | 85 | 1008.0 |
| 20260510023016 | 51 | 288 | 0.0 | 0.0 | 0.02 | 0.22 | 0.02 | 85 | 1008.2 |
| 20260510022516 | 51 | 225 | 0.0 | 0.0 | 0.00 | 0.20 | 0.00 | 85 | 1008.3 |
| 20260510022016 | 51 | 180 | 0.0 | 6.0 | 0.00 | 0.20 | 0.00 | 86 | 1008.2 |
| 20260510021516 | 52 | 168 | 0.0 | 6.0 | 0.00 | 0.20 | 0.00 | 86 | 1008.1 |
| 20260510021017 | 52 | 233 | 0.0 | 0.0 | 0.00 | 0.20 | 0.00 | 86 | 1008.1 |
| 20260510020516 | 52 | 225 | 0.0 | 0.0 | 0.00 | 0.20 | 0.00 | 86 | 1008.3 |
| 20260510020016 | 52 | 220 | 0.0 | 2.0 | 0.00 | 0.20 | 0.00 | 87 | 1008.3 |
| 20260510015516 | 52 | 177 | 0.0 | 2.0 | 0.00 | 0.20 | 0.00 | 88 | 1008.1 |
| 20260510015016 | 52 | 192 | 0.0 | 3.0 | 0.00 | 0.20 | 0.00 | 89 | 1008.0 |
| 20260510014516 | 52 | 227 | 1.0 | 3.0 | 0.00 | 0.20 | 0.00 | 89 | 1008.0 |
| 20260510014016 | 52 | 301 | 0.0 | 2.0 | 0.00 | 0.20 | 0.00 | 90 | 1008.0 |
| 20260510013517 | 51 | 189 | 0.0 | 3.0 | 0.00 | 0.20 | 0.00 | 90 | 1008.0 |
| 20260510013017 | 51 | 236 | 0.0 | 3.0 | 0.00 | 0.20 | 0.00 | 90 | 1008.1 |
| 20260510012516 | 51 | 230 | 1.0 | 6.0 | 0.00 | 0.20 | 0.00 | 90 | 1007.9 |
| 20260510012016 | 51 | 237 | 0.0 | 0.0 | 0.00 | 0.20 | 0.00 | 90 | 1007.9 |
| 20260510011516 | 51 | 202 | 0.0 | 0.0 | 0.00 | 0.20 | 0.00 | 90 | 1007.9 |
| 20260510011016 | 51 | 202 | 0.0 | 0.0 | 0.00 | 0.20 | 0.00 | 90 | 1008.4 |
| 20260510010517 | 51 | 68 | 0.0 | 0.0 | 0.00 | 0.20 | 0.00 | 90 | 1008.4 |
| 20260510010016 | 51 | 45 | 0.0 | 0.0 | 0.00 | 0.20 | 0.00 | 90 | 1008.5 |
| 20260510005516 | 51 | 45 | 0.0 | 0.0 | 0.00 | 0.20 | 0.00 | 90 | 1008.5 |
| 20260510005016 | 51 | 68 | 0.0 | 0.0 | 0.00 | 0.20 | 0.00 | 90 | 1008.6 |
| 20260510004516 | 50 | 68 | 0.0 | 0.0 | 0.00 | 0.20 | 0.00 | 90 | 1008.8 |
| 20260510004017 | 50 | 68 | 0.0 | 1.0 | 0.00 | 0.20 | 0.00 | 90 | 1008.7 |
| 20260510003516 | 50 | 68 | 0.0 | 1.0 | 0.00 | 0.20 | 0.00 | 90 | 1008.6 |
| 20260510003017 | 50 | 68 | 0.0 | 0.0 | 0.00 | 0.20 | 0.00 | 90 | 1008.6 |
| 20260510002517 | 50 | 68 | 0.0 | 0.0 | 0.00 | 0.20 | 0.00 | 90 | 1008.8 |
| 20260510002016 | 50 | 68 | 0.0 | 0.0 | 0.00 | 0.20 | 0.00 | 89 | 1008.8 |
| 20260510001516 | 50 | 68 | 0.0 | 0.0 | 0.00 | 0.20 | 0.00 | 89 | 1008.7 |
| 20260510001017 | 50 | 68 | 0.0 | 0.0 | 0.00 | 0.20 | 0.00 | 89 | 1008.7 |
| 20260510000516 | 51 | 68 | 0.0 | 0.0 | 0.00 | 0.20 | 0.00 | 89 | 1008.6 |
| 20260510000017 | 51 | 68 | 0.0 | 1.0 | 0.00 | 0.20 | 0.00 | 89 | 1008.7 |
| 20260509235516 | 51 | 112 | 0.0 | 0.0 | 0.00 | 0.20 | 0.00 | 89 | 1008.6 |
| 20260509235017 | 51 | 22 | 0.0 | 0.0 | 0.00 | 0.20 | 0.00 | 89 | 1008.7 |
| 20260509234516 | 51 | 68 | 0.0 | 0.0 | 0.00 | 0.20 | 0.00 | 89 | 1008.5 |
| 20260509234016 | 51 | 68 | 0.0 | 0.0 | 0.00 | 0.20 | 0.00 | 89 | 1008.7 |
| 20260509233516 | 51 | 68 | 0.0 | 0.0 | 0.00 | 0.20 | 0.00 | 89 | 1008.4 |
| 20260509233017 | 51 | 112 | 0.0 | 2.0 | 0.00 | 0.20 | 0.00 | 89 | 1008.4 |
| 20260509232516 | 51 | 180 | 0.0 | 2.0 | 0.00 | 0.20 | 0.00 | 89 | 1008.4 |
| 20260509232016 | 51 | 133 | 0.0 | 0.0 | 0.00 | 0.20 | 0.00 | 89 | 1008.4 |
| 20260509231517 | 51 | 248 | 0.0 | 0.0 | 0.00 | 0.20 | 0.00 | 88 | 1008.8 |
| 20260509231017 | 51 | 248 | 0.0 | 0.0 | 0.00 | 0.20 | 0.00 | 88 | 1008.7 |
| 20260509230517 | 51 | 68 | 0.0 | 0.0 | 0.00 | 0.20 | 0.00 | 88 | 1008.5 |
| 20260509230016 | 51 | 56 | 0.0 | 0.0 | 0.00 | 0.20 | 0.00 | 88 | 1008.4 |
| 20260509225515 | 50 | 68 | 0.0 | 0.0 | 0.00 | 0.20 | 0.00 | 88 | 1008.4 |
| 20260509225016 | 50 | 25 | 0.0 | 0.0 | 0.00 | 0.20 | 0.00 | 88 | 1008.4 |
| 20260509224516 | 50 | 22 | 0.0 | 0.0 | 0.00 | 0.20 | 0.00 | 88 | 1008.5 |
| 20260509224016 | 50 | 22 | 0.0 | 0.0 | 0.00 | 0.20 | 0.00 | 87 | 1008.5 |
| 20260509223516 | 51 | 22 | 0.0 | 0.0 | 0.00 | 0.20 | 0.00 | 87 | 1008.5 |
| 20260509223017 | 51 | 22 | 0.0 | 0.0 | 0.00 | 0.20 | 0.00 | 87 | 1008.5 |
| 20260509222516 | 51 | 22 | 0.0 | 0.0 | 0.00 | 0.20 | 0.00 | 87 | 1008.5 |
| 20260509222016 | 51 | 68 | 0.0 | 0.0 | 0.00 | 0.20 | 0.00 | 86 | 1008.5 |
| 20260509221516 | 51 | 158 | 0.0 | 0.0 | 0.00 | 0.20 | 0.00 | 86 | 1008.5 |
| 20260509221015 | 51 | 158 | 0.0 | 0.0 | 0.00 | 0.20 | 0.00 | 86 | 1008.4 |
| 20260509220516 | 51 | 158 | 0.0 | 0.0 | 0.00 | 0.20 | 0.00 | 86 | 1008.6 |
| 20260509220016 | 52 | 158 | 0.0 | 0.0 | 0.00 | 0.20 | 0.00 | 86 | 1008.4 |
| 20260509215517 | 52 | 158 | 0.0 | 0.0 | 0.00 | 0.20 | 0.20 | 85 | 1008.4 |
| 20260509215016 | 52 | 158 | 0.0 | 0.0 | 0.00 | 0.20 | 0.20 | 85 | 1008.4 |
| 20260509214515 | 53 | 158 | 0.0 | 0.0 | 0.00 | 0.20 | 0.20 | 85 | 1008.4 |
| 20260509214015 | 53 | 157 | 0.0 | 0.0 | 0.00 | 0.20 | 0.20 | 85 | 1008.3 |
| 20260509213516 | 53 | 125 | 0.0 | 0.0 | 0.00 | 0.20 | 0.20 | 85 | 1008.3 |
| 20260509213015 | 53 | 147 | 0.0 | 2.0 | 0.00 | 0.20 | 0.20 | 85 | 1008.2 |
| 20260509212515 | 53 | 108 | 0.0 | 1.0 | 0.00 | 0.20 | 0.20 | 85 | 1008.3 |
| 20260509212016 | 53 | 86 | 0.0 | 1.0 | 0.00 | 0.20 | 0.20 | 85 | 1008.2 |
| 20260509211515 | 53 | 112 | 1.0 | 2.0 | 0.00 | 0.20 | 0.20 | 85 | 1008.3 |
| 20260509211016 | 53 | 63 | 0.0 | 2.0 | 0.00 | 0.20 | 0.20 | 84 | 1008.5 |
| 20260509210517 | 53 | 90 | 0.0 | 0.0 | 0.00 | 0.20 | 0.20 | 84 | 1008.4 |
| 20260509210016 | 53 | 68 | 1.0 | 5.0 | 0.00 | 0.20 | 0.20 | 83 | 1008.4 |
| 20260509205516 | 53 | 90 | 0.0 | 2.0 | 0.00 | 0.20 | 0.20 | 84 | 1008.5 |
| 20260509205016 | 53 | 68 | 1.0 | 3.0 | 0.00 | 0.20 | 0.20 | 83 | 1008.4 |
| 20260509204517 | 54 | 112 | 1.0 | 5.0 | 0.00 | 0.20 | 0.20 | 83 | 1008.3 |
| 20260509204017 | 54 | 101 | 1.0 | 6.0 | 0.00 | 0.20 | 0.20 | 83 | 1008.5 |
| 20260509203516 | 55 | 123 | 0.0 | 5.0 | 0.00 | 0.20 | 0.20 | 84 | 1008.4 |
| 20260509203016 | 55 | 139 | 1.0 | 5.0 | 0.00 | 0.20 | 0.20 | 84 | 1008.4 |
| 20260509202516 | 55 | 86 | 0.0 | 5.0 | 0.00 | 0.20 | 0.20 | 84 | 1008.4 |
| 20260509202016 | 55 | 67 | 0.0 | 3.0 | 0.00 | 0.20 | 0.20 | 84 | 1008.3 |
| 20260509201515 | 55 | 84 | 0.0 | 6.0 | 0.00 | 0.20 | 0.20 | 84 | 1008.3 |
| 20260509201016 | 55 | 117 | 0.0 | 3.0 | 0.00 | 0.20 | 0.20 | 84 | 1008.3 |
| 20260509200516 | 55 | 103 | 1.0 | 3.0 | 0.00 | 0.20 | 0.20 | 84 | 1008.1 |
| 20260509200016 | 55 | 117 | 0.0 | 0.0 | 0.00 | 0.20 | 0.20 | 84 | 1008.1 |
| 20260509195516 | 55 | 90 | 0.0 | 2.0 | 0.00 | 0.20 | 0.20 | 85 | 1008.0 |
| 20260509195015 | 55 | 158 | 0.0 | 0.0 | 0.00 | 0.20 | 0.20 | 84 | 1008.1 |
| 20260509194515 | 55 | 135 | 0.0 | 0.0 | 0.00 | 0.20 | 0.20 | 84 | 1007.7 |
| 20260509194016 | 55 | 135 | 0.0 | 2.0 | 0.00 | 0.24 | 0.20 | 84 | 1007.7 |
| 20260509193516 | 55 | 118 | 0.0 | 2.0 | 0.00 | 0.24 | 0.20 | 84 | 1007.7 |
| 20260509193016 | 56 | 112 | 0.0 | 0.0 | 0.00 | 0.24 | 0.20 | 84 | 1007.7 |
| 20260509192516 | 56 | 112 | 0.0 | 0.0 | 0.00 | 0.24 | 0.20 | 83 | 1007.7 |
| 20260509192017 | 56 | 112 | 0.0 | 0.0 | 0.00 | 0.24 | 0.20 | 83 | 1007.5 |
| 20260509191515 | 56 | 133 | 0.0 | 0.0 | 0.00 | 0.24 | 0.20 | 83 | 1007.6 |
| 20260509191016 | 56 | 131 | 0.0 | 1.0 | 0.00 | 0.24 | 0.20 | 83 | 1007.5 |
| 20260509190518 | 56 | 97 | 0.0 | 0.0 | 0.00 | 0.24 | 0.20 | 83 | 1007.6 |
| 20260509190017 | 57 | 126 | 1.0 | 5.0 | 0.00 | 0.24 | 0.20 | 83 | 1007.6 |
| 20260509185516 | 57 | 105 | 1.0 | 3.0 | 0.00 | 0.24 | 0.20 | 83 | 1007.5 |
| 20260509185017 | 58 | 129 | 0.0 | 0.0 | 0.00 | 0.24 | 0.20 | 83 | 1007.5 |
| 20260509184515 | 58 | 158 | 0.0 | 0.0 | 0.00 | 0.24 | 0.20 | 83 | 1007.5 |
| 20260509184016 | 58 | 158 | 0.0 | 5.0 | 0.00 | 0.24 | 0.20 | 83 | 1007.5 |
| 20260509183517 | 58 | 112 | 1.0 | 8.0 | 0.00 | 0.24 | 0.20 | 83 | 1007.4 |
| 20260509183017 | 58 | 94 | 0.0 | 3.0 | 0.00 | 0.24 | 0.20 | 84 | 1007.4 |
| 20260509182516 | 58 | 125 | 1.0 | 2.0 | 0.00 | 0.24 | 0.20 | 84 | 1007.4 |
| 20260509182017 | 58 | 90 | 0.0 | 2.0 | 0.00 | 0.24 | 0.20 | 85 | 1007.3 |
| 20260509181517 | 58 | 90 | 0.0 | 0.0 | 0.00 | 0.24 | 0.20 | 84 | 1007.4 |
| 20260509181019 | 58 | 90 | 0.0 | 0.0 | 0.00 | 0.24 | 0.20 | 84 | 1007.5 |
| 20260509180517 | 58 | 90 | 0.0 | 1.0 | 0.00 | 0.24 | 0.20 | 83 | 1007.6 |
| 20260509180015 | 58 | 90 | 0.0 | 0.0 | 0.02 | 0.24 | 0.20 | 83 | 1007.6 |
| 20260509175517 | 57 | 90 | 0.0 | 0.0 | 0.12 | 0.24 | 0.20 | 82 | 1007.5 |
| 20260509175016 | 57 | 90 | 0.0 | 0.0 | 0.16 | 0.24 | 0.20 | 82 | 1007.3 |
| 20260509174516 | 57 | 90 | 0.0 | 0.0 | 0.18 | 0.24 | 0.20 | 82 | 1007.4 |
| 20260509174016 | 57 | 90 | 0.0 | 0.0 | 0.20 | 0.24 | 0.20 | 82 | 1007.4 |
| 20260509173516 | 57 | 90 | 0.0 | 0.0 | 0.20 | 0.24 | 0.20 | 82 | 1007.6 |
| 20260509173016 | 57 | 76 | 0.0 | 0.0 | 0.20 | 0.24 | 0.20 | 81 | 1007.7 |
| 20260509172516 | 57 | 90 | 0.0 | 0.0 | 0.20 | 0.24 | 0.20 | 81 | 1007.7 |
| 20260509172017 | 57 | 90 | 0.0 | 0.0 | 0.20 | 0.24 | 0.20 | 79 | 1007.8 |
| 20260509171518 | 57 | 184 | 0.0 | 0.0 | 0.20 | 0.24 | 0.20 | 78 | 1007.6 |
| 20260509171017 | 57 | 202 | 0.0 | 3.0 | 0.20 | 0.24 | 0.20 | 77 | 1007.5 |
| 20260509170516 | 57 | 134 | 0.0 | 7.0 | 0.20 | 0.24 | 0.20 | 76 | 1007.4 |
| 20260509170016 | 59 | 246 | 4.0 | 8.0 | 0.18 | 0.22 | 0.18 | 74 | 1007.4 |
| 20260509165515 | 60 | 292 | 0.0 | 3.0 | 0.08 | 0.12 | 0.08 | 72 | 1007.1 |
| 20260509165015 | 61 | 187 | 2.0 | 6.0 | 0.04 | 0.08 | 0.04 | 70 | 1007.1 |
| 20260509164515 | 62 | 271 | 0.0 | 8.0 | 0.02 | 0.06 | 0.02 | 67 | 1007.1 |
| 20260509164016 | 62 | 153 | 6.0 | 14.0 | 0.00 | 0.04 | 0.00 | 66 | 1007.1 |
| 20260509163516 | 63 | 93 | 5.0 | 10.0 | 0.00 | 0.04 | 0.00 | 65 | 1006.8 |
| 20260509163016 | 63 | 150 | 4.0 | 8.0 | 0.00 | 0.04 | 0.00 | 64 | 1006.8 |
| 20260509162516 | 63 | 140 | 4.0 | 8.0 | 0.00 | 0.04 | 0.00 | 64 | 1006.6 |
| 20260509162016 | 64 | 82 | 5.0 | 9.0 | 0.00 | 0.04 | 0.00 | 63 | 1006.4 |
| 20260509161516 | 64 | 97 | 4.0 | 9.0 | 0.00 | 0.04 | 0.00 | 62 | 1006.2 |
| 20260509161016 | 65 | 105 | 3.0 | 8.0 | 0.00 | 0.04 | 0.00 | 61 | 1006.5 |
| 20260509160516 | 65 | 115 | 3.0 | 9.0 | 0.00 | 0.04 | 0.00 | 60 | 1006.7 |
| 20260509160016 | 66 | 110 | 6.0 | 16.0 | 0.00 | 0.04 | 0.00 | 59 | 1006.6 |
| 20260509155516 | 67 | 131 | 5.0 | 9.0 | 0.00 | 0.04 | 0.00 | 59 | 1006.6 |
| 20260509155016 | 68 | 91 | 5.0 | 10.0 | 0.00 | 0.04 | 0.00 | 59 | 1006.7 |
| 20260509154515 | 68 | 115 | 5.0 | 14.0 | 0.00 | 0.06 | 0.00 | 59 | 1006.7 |
| 20260509154017 | 68 | 94 | 4.0 | 12.0 | 0.00 | 0.08 | 0.00 | 59 | 1006.6 |
| 20260509153515 | 69 | 105 | 6.0 | 13.0 | 0.00 | 0.10 | 0.00 | 58 | 1006.6 |